When you browse on this site, cookies collect data to enhance your experience and personalize the content and advertising you see.
Visit our Privacy Policy to learn more. By continuing to use the site, you agree to this use of cookies and data.
  • In France
  • List of Countries
  • For 7 days
  • Water Temperature
  • Weather Map
  • Weather Widgets
  • user-avatar
    Login

    Hourly Weather Saurimo

    Today, 1 April, Wednesday

    Time Temperature Precipitation Wind Pressure Humidity
    00:00 +20°C° 0.2 mm 0 mps 669 mmHg 91%
    01:00 +19°C° 0 mm 0 mps 669 mmHg 91%
    02:00 +19°C° 0.2 mm 0 mps 669 mmHg 92%
    03:00 +19°C° 0.2 mm 0 mps 669 mmHg 93%
    04:00 +19°C° 0.2 mm 0 mps 668 mmHg 93%
    05:00 +19°C° 0.1 mm 0 mps 669 mmHg 92%
    06:00 +20°C° 0.1 mm 0 mps 670 mmHg 91%
    07:00 +23°C° 0.1 mm 1 mps 671 mmHg 91%
    08:00 +25°C° 0 mm 1 mps 671 mmHg 83%
    09:00 +27°C° 0 mm 1 mps 671 mmHg 76%
    10:00 +29°C° 0 mm 1 mps 672 mmHg 68%
    11:00 +30°C° 0.1 mm 1 mps 671 mmHg 63%
    12:00 +32°C° 0.1 mm 1 mps 671 mmHg 58%
    13:00 +33°C° 0.1 mm 1 mps 671 mmHg 53%
    14:00 +32°C° 0.5 mm 1 mps 670 mmHg 59%
    15:00 +30°C° 0.5 mm 1 mps 669 mmHg 65%
    16:00 +29°C° 0.5 mm 1 mps 668 mmHg 71%
    17:00 +27°C° 0.2 mm 1 mps 668 mmHg 76%
    18:00 +26°C° 0.2 mm 1 mps 668 mmHg 81%
    19:00 +24°C° 0.2 mm 1 mps 668 mmHg 85%
    20:00 +23°C° 0.3 mm 1 mps 668 mmHg 86%
    21:00 +21°C° 0.3 mm 0 mps 668 mmHg 87%
    22:00 +20°C° 0.3 mm 0 mps 669 mmHg 88%
    23:00 +20°C° 0.8 mm 0 mps 669 mmHg 90%

    Tomorrow, 2 April, Thursday

    Time Temperature Precipitation Wind Pressure Humidity
    00:00 +22°C° 0.8 mm 1 mps 669 mmHg 92%
    01:00 +22°C° 0.8 mm 1 mps 669 mmHg 94%
    02:00 +21°C° 0.4 mm 1 mps 669 mmHg 94%
    03:00 +21°C° 0.4 mm 1 mps 668 mmHg 95%
    04:00 +21°C° 0.4 mm 1 mps 668 mmHg 96%
    05:00 +22°C° 0.7 mm 1 mps 669 mmHg 95%
    06:00 +22°C° 0.7 mm 1 mps 670 mmHg 95%
    07:00 +22°C° 0.7 mm 1 mps 670 mmHg 94%
    08:00 +23°C° 1.6 mm 1 mps 671 mmHg 93%
    09:00 +23°C° 1.6 mm 1 mps 671 mmHg 91%
    10:00 +24°C° 1.6 mm 1 mps 671 mmHg 90%
    11:00 +24°C° 1.6 mm 1 mps 670 mmHg 90%
    12:00 +24°C° 1.6 mm 1 mps 670 mmHg 90%
    13:00 +24°C° 1.6 mm 1 mps 669 mmHg 91%
    14:00 +24°C° 0.4 mm 2 mps 669 mmHg 91%
    15:00 +24°C° 0.4 mm 2 mps 668 mmHg 90%
    16:00 +24°C° 0.4 mm 2 mps 668 mmHg 90%
    17:00 +23°C° 0.1 mm 1 mps 668 mmHg 92%
    18:00 +23°C° 0.1 mm 1 mps 669 mmHg 93%
    19:00 +20°C° 0.1 mm 0 mps 669 mmHg 94%
    20:00 +20°C° 0.5 mm 0 mps 669 mmHg 95%
    21:00 +22°C° 0.5 mm 1 mps 670 mmHg 95%
    22:00 +21°C° 0.5 mm 1 mps 670 mmHg 96%
    23:00 +21°C° 1.1 mm 1 mps 670 mmHg 96%

    Day after tomorrow, 3 April, Friday

    Time Temperature Precipitation Wind Pressure Humidity
    00:00 +21°C° 1.1 mm 1 mps 669 mmHg 97%
    01:00 +21°C° 1.1 mm 1 mps 669 mmHg 97%
    02:00 +21°C° 0.6 mm 1 mps 669 mmHg 97%
    03:00 +21°C° 0.6 mm 1 mps 669 mmHg 97%
    04:00 +19°C° 0.6 mm 0 mps 669 mmHg 98%
    05:00 +19°C° 0.3 mm 0 mps 669 mmHg 97%
    06:00 +19°C° 0.3 mm 0 mps 670 mmHg 96%
    07:00 +21°C° 0.3 mm 1 mps 670 mmHg 96%
    08:00 +22°C° 0.1 mm 1 mps 670 mmHg 93%
    09:00 +23°C° 0.1 mm 1 mps 671 mmHg 90%
    10:00 +24°C° 0.1 mm 2 mps 671 mmHg 87%
    11:00 +24°C° 0.2 mm 2 mps 671 mmHg 85%
    12:00 +25°C° 0.2 mm 2 mps 670 mmHg 84%
    13:00 +25°C° 0.2 mm 2 mps 670 mmHg 82%
    14:00 +25°C° 0.2 mm 2 mps 669 mmHg 82%
    15:00 +25°C° 0.2 mm 2 mps 669 mmHg 81%
    16:00 +25°C° 0.2 mm 3 mps 669 mmHg 80%
    17:00 +24°C° 0.2 mm 2 mps 669 mmHg 86%
    18:00 +23°C° 0.2 mm 2 mps 669 mmHg 91%
    19:00 +21°C° 0.2 mm 1 mps 669 mmHg 96%
    20:00 +21°C° 0.1 mm 1 mps 670 mmHg 97%
    21:00 +20°C° 0.1 mm 1 mps 670 mmHg 97%
    22:00 +20°C° 0.1 mm 1 mps 670 mmHg 98%
    23:00 +20°C° 0 mm 1 mps 670 mmHg 98%

    4 April, Saturday

    Time Temperature Precipitation Wind Pressure Humidity
    00:00 +20°C° 0 mm 1 mps 670 mmHg 98%
    01:00 +19°C° 0 mm 1 mps 670 mmHg 98%
    02:00 +19°C° 0 mm 1 mps 669 mmHg 98%
    03:00 +19°C° 0 mm 1 mps 669 mmHg 98%
    04:00 +19°C° 0 mm 1 mps 669 mmHg 98%
    05:00 +20°C° 0 mm 1 mps 669 mmHg 97%
    06:00 +19°C° 0 mm 2 mps 670 mmHg 96%
    07:00 +20°C° 0 mm 2 mps 671 mmHg 94%
    08:00 +23°C° 0 mm 2 mps 671 mmHg 86%
    09:00 +25°C° 0 mm 2 mps 672 mmHg 77%
    10:00 +27°C° 0 mm 2 mps 672 mmHg 68%
    11:00 +29°C° 0.8 mm 1 mps 672 mmHg 64%
    12:00 +30°C° 0.8 mm 1 mps 671 mmHg 60%
    13:00 +31°C° 0.8 mm 1 mps 671 mmHg 56%
    14:00 +31°C° 0 mm 1 mps 670 mmHg 57%
    15:00 +30°C° 0 mm 1 mps 670 mmHg 58%
    16:00 +30°C° 0 mm 1 mps 669 mmHg 60%
    17:00 +28°C° 0.1 mm 1 mps 669 mmHg 69%
    18:00 +25°C° 0.1 mm 1 mps 669 mmHg 79%
    19:00 +23°C° 0.1 mm 1 mps 669 mmHg 88%
    20:00 +22°C° 0.4 mm 1 mps 670 mmHg 91%
    21:00 +22°C° 0.4 mm 1 mps 670 mmHg 93%
    22:00 +21°C° 0.4 mm 1 mps 670 mmHg 96%
    23:00 +21°C° 0.1 mm 1 mps 670 mmHg 96%

    5 April, Sunday

    Time Temperature Precipitation Wind Pressure Humidity
    00:00 +21°C° 0.1 mm 1 mps 670 mmHg 95%
    01:00 +21°C° 0.1 mm 1 mps 670 mmHg 95%
    02:00 +20°C° 0.1 mm 1 mps 669 mmHg 96%
    03:00 +20°C° 0.1 mm 1 mps 669 mmHg 96%
    04:00 +20°C° 0.1 mm 1 mps 669 mmHg 97%
    05:00 +20°C° 0.1 mm 1 mps 670 mmHg 96%
    06:00 +21°C° 0.1 mm 1 mps 670 mmHg 95%
    07:00 +21°C° 0.1 mm 1 mps 671 mmHg 94%
    08:00 +24°C° 0 mm 1 mps 672 mmHg 86%
    09:00 +26°C° 0 mm 1 mps 672 mmHg 78%
    10:00 +28°C° 0 mm 1 mps 672 mmHg 69%
    11:00 +30°C° 0 mm 1 mps 672 mmHg 64%
    12:00 +32°C° 0 mm 1 mps 671 mmHg 59%
    13:00 +31°C° 0 mm 0 mps 671 mmHg 53%
    14:00 +32°C° 0.2 mm 1 mps 670 mmHg 58%
    15:00 +31°C° 0.2 mm 1 mps 669 mmHg 62%
    16:00 +29°C° 0.2 mm 1 mps 669 mmHg 67%
    17:00 +27°C° 0.5 mm 1 mps 669 mmHg 73%
    18:00 +25°C° 0.5 mm 1 mps 669 mmHg 79%
    19:00 +23°C° 0.5 mm 1 mps 669 mmHg 85%
    20:00 +23°C° 0.1 mm 1 mps 669 mmHg 87%
    21:00 +22°C° 0.1 mm 1 mps 669 mmHg 88%
    22:00 +22°C° 0.1 mm 1 mps 669 mmHg 89%
    23:00 +22°C° 0.8 mm 1 mps 669 mmHg 91%

    6 April, Monday

    Time Temperature Precipitation Wind Pressure Humidity
    00:00 +21°C° 0.8 mm 1 mps 669 mmHg 93%
    01:00 +21°C° 0.8 mm 1 mps 669 mmHg 95%
    02:00 +21°C° 1.7 mm 1 mps 669 mmHg 96%
    03:00 +21°C° 1.7 mm 1 mps 669 mmHg 96%
    04:00 +20°C° 1.7 mm 2 mps 669 mmHg 97%
    05:00 +21°C° 0.8 mm 1 mps 670 mmHg 97%
    06:00 +21°C° 0.8 mm 1 mps 671 mmHg 96%
    07:00 +19°C° 0.8 mm 0 mps 671 mmHg 96%
    08:00 +20°C° 0.9 mm 0 mps 672 mmHg 93%
    09:00 +23°C° 0.9 mm 1 mps 672 mmHg 90%
    10:00 +24°C° 0.9 mm 1 mps 673 mmHg 87%
    11:00 +24°C° 0.3 mm 1 mps 671 mmHg 88%
    12:00 +23°C° 0.3 mm 1 mps 670 mmHg 90%
    13:00 +21°C° 0.3 mm 0 mps 669 mmHg 91%
    14:00 +22°C° 0 mm 0 mps 669 mmHg 84%
    15:00 +25°C° 0 mm 1 mps 669 mmHg 78%
    16:00 +27°C° 0 mm 1 mps 669 mmHg 71%
    17:00 +23°C° 0 mm 0 mps 669 mmHg 76%
    18:00 +21°C° 0 mm 0 mps 669 mmHg 82%
    19:00 +20°C° 0 mm 0 mps 669 mmHg 88%
    20:00 +20°C° 0 mm 0 mps 669 mmHg 88%
    21:00 +21°C° 0 mm 1 mps 669 mmHg 88%
    22:00 +21°C° 0 mm 1 mps 670 mmHg 89%
    23:00 +21°C° 0 mm 1 mps 669 mmHg 90%
    Show more